El Paso, TX

11:49 PM MDT on July 21, 2017 (GMT -0600)
El Paso International

Weather History for KELP - March, 2012

Change the Weather History Date:

Saturday, March 31, 2012

  Actual Average Record
Temperature  
Mean Temperature 73 °F 60 °F  
Max Temperature 87 °F 74 °F 87 °F (1978)
Min Temperature 58 °F 46 °F 22 °F (1987)
Degree Days  
Heating Degree Days 0 6  
Month to date heating degree days 233 271  
Since 1 July heating degree days 2256 2373  
Cooling Degree Days 8 1  
Month to date cooling degree days 37 10  
Year to date cooling degree days 37 10  
Growing Degree Days 23 (Base 50)    
Moisture  
Dew Point 14 °F    
Average Humidity 13    
Maximum Humidity 19    
Minimum Humidity 6    
Precipitation  
Precipitation 0.00 in 0.01 in 0.64 in (1945)
Month to date precipitation 0.08 0.26  
Year to date precipitation 0.76 1.12  
Snow  
Snow 0.00 in - - ()
Month to date snowfall T  
Since 1 July snowfall 3.2  
Snow Depth 0.00 in    
Sea Level Pressure  
Sea Level Pressure 29.76 in    
Wind  
Wind Speed 10 mph (WSW)    
Max Wind Speed 23 mph    
Max Gust Speed 28 mph    
Visibility 10 miles    
Events      
T = Trace of Precipitation, MM = Missing Value Source: NWS Daily Summary

Daily Weather History Graph

Daily Weather History Graph

Search for Another Location

Airport or City:

Trip Planner

Search our weather history database for the weather conditions in past years. The results will help you decide how hot, cold, wet, or windy it might be!

Date:

Astronomy

Mar. 31, 2012 Rise Set
Actual Time 6:54 AM MDT 7:24 PM MDT
Civil Twilight 6:30 AM MDT 7:49 PM MDT
Nautical Twilight 6:01 AM MDT 8:18 PM MDT
Astronomical Twilight 5:32 AM MDT 8:47 PM MDT
Moon 1:17 PM MDT (3/31) 2:30 AM MDT (3/31)
Length of Visible Light 13h 19m
Length of Day
12h 30m
First Quarter, 59% of the Moon is Illuminated
Mar 31
First Quarter
Apr 6
Full
Apr 13
Last Quarter
Apr 21
New
Apr 29
First Quarter

Hourly Weather History & Observations

Time (MDT) Temp. Dew Point Humidity Pressure Visibility Wind Dir Wind Speed Gust Speed Precip Events Conditions
12:51 AM 75.0 °F 14.0 °F 10% 29.75 in 10.0 mi WNW 5.8 mph - N/A   Partly Cloudy
1:51 AM 71.1 °F 15.1 °F 12% 29.74 in 10.0 mi Variable 3.5 mph - N/A   Partly Cloudy
2:51 AM 71.1 °F 17.1 °F 13% 29.74 in 10.0 mi West 9.2 mph 16.1 mph N/A   Partly Cloudy
3:51 AM 63.0 °F 16.0 °F 16% 29.75 in 10.0 mi Variable 4.6 mph - N/A   Partly Cloudy
4:51 AM 71.1 °F 15.1 °F 12% 29.73 in 10.0 mi West 10.4 mph - N/A   Clear
5:51 AM 71.1 °F 14.0 °F 11% 29.75 in 10.0 mi WSW 12.7 mph 21.9 mph N/A   Clear
6:51 AM 62.1 °F 17.1 °F 18% 29.79 in 10.0 mi South 4.6 mph - N/A   Partly Cloudy
7:51 AM 60.1 °F 18.0 °F 20% 29.84 in 10.0 mi SSE 5.8 mph - N/A   Mostly Cloudy
8:51 AM 63.0 °F 18.0 °F 18% 29.85 in 10.0 mi South 5.8 mph - N/A   Scattered Clouds
9:51 AM 70.0 °F 17.1 °F 13% 29.85 in 10.0 mi SSW 8.1 mph - N/A   Scattered Clouds
10:51 AM 75.0 °F 17.1 °F 11% 29.84 in 10.0 mi SW 5.8 mph - N/A   Mostly Cloudy
11:19 AM 78.8 °F 15.8 °F 9% 30.03 in 10.0 mi West 13.8 mph - N/A   Mostly Cloudy
11:51 AM 79.0 °F 16.0 °F 9% 29.82 in 10.0 mi WSW 10.4 mph - N/A   Mostly Cloudy
12:51 PM 82.0 °F 17.1 °F 9% 29.78 in 10.0 mi West 6.9 mph 18.4 mph N/A   Scattered Clouds
1:51 PM 84.0 °F 12.0 °F 7% 29.76 in 10.0 mi West 12.7 mph 24.2 mph N/A   Scattered Clouds
2:51 PM 84.0 °F 10.0 °F 6% 29.73 in 10.0 mi WSW 12.7 mph 26.5 mph N/A   Scattered Clouds
3:51 PM 86.0 °F 10.9 °F 6% 29.72 in 10.0 mi West 16.1 mph 25.3 mph N/A   Scattered Clouds
4:51 PM 84.9 °F 10.9 °F 6% 29.69 in 10.0 mi West 13.8 mph 23.0 mph N/A   Scattered Clouds
5:51 PM 84.0 °F 10.0 °F 6% 29.68 in 10.0 mi WSW 16.1 mph 20.7 mph N/A   Scattered Clouds
6:51 PM 82.9 °F 10.0 °F 6% 29.70 in 10.0 mi WSW 17.3 mph - N/A   Mostly Cloudy
7:51 PM 80.1 °F 12.0 °F 8% 29.71 in 10.0 mi WSW 11.5 mph - N/A   Scattered Clouds
8:51 PM 79.0 °F 12.0 °F 8% 29.72 in 10.0 mi WNW 11.5 mph - N/A   Partly Cloudy
9:51 PM 77.0 °F 14.0 °F 9% 29.72 in 10.0 mi WNW 9.2 mph - N/A   Partly Cloudy
10:51 PM 75.0 °F 15.1 °F 10% 29.71 in 10.0 mi WNW 5.8 mph - N/A   Clear
11:51 PM 73.0 °F 10.0 °F 9% 29.70 in 10.0 mi WSW 12.7 mph 19.6 mph N/A   Clear